This demonstration page uses our WeatherBlox Daily Observations layout. Learn more.

40.92945, -100.16068

Hourly Observations for June 9, 2019

Temp ( °F °C ) Dew Point ( °F °C ) Humidity (%) Winds ( mph kmh ) Pressure ( in mb ) Visibility ( mi km ) Precip ( " mm )
12:15 am 00:15 Cloudy with Light Rain 60 15.5 58 14.6 94 94 N 20 31 30 1016 10 16.09344 0 0
12:35 am 00:35 Cloudy with Rain 59 15.2 58 14.5 96 96 N 18 30 30 1016 7 11.265408 0.02 0.508
12:55 am 00:55 Cloudy with Heavy Rain 58 14.6 57 14.1 97 97 N 17 28 30 1016 4 6.437376 0.1 2.54
1:15 am 01:15 Cloudy with Light Rain 58 14.3 57 13.8 97 97 NNE 24 39 30 1016 5 8.04672 0.06 1.524
1:35 am 01:35 Cloudy with Light Rain 57 13.8 56 13.3 97 97 NE 17 28 30 1016 7 11.265408 0.08 2.032
1:55 am 01:55 Cloudy with Light Drizzle 56 13.5 55 12.9 96 96 NNE 21 33 30.06 1018 10 16.09344 0.08 2.032
2:15 am 02:15 Cloudy with Light Drizzle 55 13 54 12.3 96 96 N 23 37 30.06 1018 10 16.09344 0 0
2:35 am 02:35 Cloudy 55 12.7 54 12 96 96 N 22 35 30.09 1019 10 16.09344 0 0
2:55 am 02:55 Cloudy 55 12.6 53 11.7 94 94 N 21 33 30.09 1019 10 16.09344 0 0
3:15 am 03:15 Cloudy 55 12.5 53 11.5 94 94 NNE 22 35 30.09 1019 10 16.09344 0 0
3:35 am 03:35 Cloudy 55 12.5 52 11.2 92 92 N 18 30 30.09 1019 10 16.09344 0 0
3:55 am 03:55 Cloudy 54 12.2 52 10.9 92 92 N 22 35 30.12 1020 10 16.09344 0 0
4:15 am 04:15 Cloudy 54 12 51 10.5 91 91 N 24 39 30.12 1020 10 16.09344 0 0
4:35 am 04:35 Cloudy 53 11.8 51 10.6 92 92 N 16 26 30.12 1020 10 16.09344 0 0
4:55 am 04:55 Cloudy 53 11.7 51 10.6 93 93 N 20 31 30.15 1021 10 16.09344 0 0
5:15 am 05:15 Cloudy 53 11.5 50 10 91 91 N 17 28 30.15 1021 10 16.09344 0 0
5:35 am 05:35 Cloudy 53 11.6 50 10 90 90 N 16 26 30.15 1021 10 16.09344 0 0
5:55 am 05:55 Cloudy with Light Rain 53 11.6 51 10.5 93 93 N 15 24 30.21 1023 10 16.09344 0.01 0.254
6:15 am 06:15 Cloudy 53 11.8 51 10.6 92 92 NNW 12 19 30.18 1022 10 16.09344 0 0
6:35 am 06:35 Cloudy 53 11.9 50 9.8 87 87 NNW 22 35 30.24 1024 10 16.09344 0 0
6:55 am 06:55 Cloudy 52 11.2 48 9 86 86 N 17 28 30.24 1024 10 16.09344 0 0
7:15 am 07:15 Cloudy 52 11.1 48 9 87 87 N 18 30 30.27 1025 10 16.09344 0 0
7:35 am 07:35 Cloudy with Light Rain 51 10.6 48 8.8 89 89 N 17 28 30.27 1025 10 16.09344 0 0
7:55 am 07:55 Cloudy with Light Drizzle 51 10.5 49 9.2 92 92 N 14 22 30.27 1025 10 16.09344 0 0
8:15 am 08:15 Cloudy 51 10.3 48 9.1 92 92 N 15 24 30.27 1025 10 16.09344 0 0
8:35 am 08:35 Cloudy 51 10.5 47 8.6 88 88 N 15 24 30.3 1026 10 16.09344 0 0
8:55 am 08:55 Cloudy 52 10.9 47 8.6 86 86 N 18 30 30.3 1026 10 16.09344 0 0
9:15 am 09:15 Cloudy 51 10.8 47 8.2 84 84 N 20 31 30.3 1026 10 16.09344 0 0
9:35 am 09:35 Cloudy 52 11.2 47 8.3 83 83 N 17 28 30.33 1027 10 16.09344 0 0
9:55 am 09:55 Cloudy 53 11.6 47 8.6 82 82 NNW 16 26 30.33 1027 10 16.09344 0 0
10:15 am 10:15 Cloudy 54 12.1 48 8.9 81 81 NNW 20 31 30.33 1027 10 16.09344 0 0
10:35 am 10:35 Cloudy 54 12.1 47 8.5 79 79 NNW 17 28 30.33 1027 10 16.09344 0 0
10:55 am 10:55 Cloudy 53 11.8 47 8.1 78 78 NNW 17 28 30.33 1027 10 16.09344 0 0
11:15 am 11:15 Cloudy 53 11.9 46 7.9 77 77 NNW 20 31 30.33 1027 10 16.09344 0 0
11:35 am 11:35 Cloudy 56 13.2 47 8.3 72 72 NNW 20 31 30.3 1026 10 16.09344 0 0
11:55 am 11:55 Mostly Cloudy 58 14.4 48 9.1 71 71 N 20 31 30.3 1026 10 16.09344 0 0
12:15 pm 12:15 Partly Cloudy 58 14.7 48 9.1 69 69 N 21 33 30.3 1026 10 16.09344 0 0
12:35 pm 12:35 Partly Cloudy 60 15.4 48 8.8 65 65 NNW 20 31 30.33 1027 10 16.09344 0 0
12:55 pm 12:55 Partly Cloudy 60 15.5 48 9 65 65 N 21 33 30.3 1026 10 16.09344 0 0
1:15 pm 13:15 Partly Cloudy 60 15.7 48 9 65 65 NNW 20 31 30.3 1026 10 16.09344 0 0
1:35 pm 13:35 Partly Cloudy 61 16.2 48 9.1 63 63 N 18 30 30.27 1025 10 16.09344 0 0
1:55 pm 13:55 Sunny 62 16.4 49 9.3 63 63 N 17 28 30.33 1027 10 16.09344 0 0
2:15 pm 14:15 Partly Cloudy 61 16.2 47 8.4 60 60 N 17 28 30.33 1027 10 16.09344 0 0
2:35 pm 14:35 Partly Cloudy 62 16.6 47 8.2 58 58 N 15 24 30.3 1026 10 16.09344 0 0
2:55 pm 14:55 Mostly Cloudy 63 17.4 49 9.3 59 59 NNW 14 22 30.3 1026 10 16.09344 0 0
3:15 pm 15:15 Cloudy 63 17.2 48 8.9 58 58 NNW 12 19 30.3 1026 10 16.09344 0 0
3:35 pm 15:35 Mostly Cloudy 65 18.1 48 8.7 54 54 NNW 16 26 30.3 1026 10 16.09344 0 0
3:55 pm 15:55 Partly Cloudy 65 18.3 48 8.8 54 54 N 15 24 30.3 1026 10 16.09344 0 0
4:15 pm 16:15 Partly Cloudy 66 19 48 8.9 52 52 N 14 22 30.3 1026 10 16.09344 0 0
4:35 pm 16:35 Mostly Cloudy 66 18.9 47 8.3 50 50 NNW 15 24 30.3 1026 10 16.09344 0 0
4:55 pm 16:55 Partly Cloudy 66 18.7 45 7.4 48 48 NNW 17 28 30.3 1026 10 16.09344 0 0
5:15 pm 17:15 Partly Cloudy 67 19.2 46 8 48 48 NNW 13 20 30.3 1026 10 16.09344 0 0
5:35 pm 17:35 Partly Cloudy 66 19 44 6.8 45 45 NNW 15 24 30.3 1026 10 16.09344 0 0
5:55 pm 17:55 Sunny 66 18.9 44 6.7 45 45 NNW 17 28 30.27 1025 10 16.09344 0 0
6:15 pm 18:15 Sunny 66 19 44 6.7 45 45 N 12 19 30.27 1025 10 16.09344 0 0
6:35 pm 18:35 Sunny 66 19 43 6.2 43 43 N 16 26 30.27 1025 10 16.09344 0 0
6:55 pm 18:55 Sunny 66 18.7 43 5.9 43 43 N 12 19 30.27 1025 10 16.09344 0 0
7:15 pm 19:15 Sunny 65 18.6 42 5.7 43 43 N 15 24 30.27 1025 10 16.09344 0 0
7:30 pm 19:30 Sunny 65 18.3 41 4.9 41 41 N 14 22 30.3 1026 10 16.09344 0 0
7:55 pm 19:55 Sunny 64 17.6 42 5.7 46 46 N 9 15 30.3 1026 10 16.09344 0 0
8:15 pm 20:15 Sunny 63 17 43 5.9 48 48 N 8 13 30.3 1026 10 16.09344 0 0
8:35 pm 20:35 Sunny 61 15.9 44 6.9 55 55 NNE 7 11 30.33 1027 10 16.09344 0 0
8:55 pm 20:55 Sunny 58 14.4 46 7.5 63 63 NNE 7 11 30.33 1027 10 16.09344 0 0
9:15 pm 21:15 Clear 56 13.2 46 7.8 70 70 NNE 6 9 30.33 1027 10 16.09344 0 0
9:35 pm 21:35 Clear 54 12.1 47 8.3 78 78 NE 3 6 30.36 1028 10 16.09344 0 0
9:55 pm 21:55 Clear 54 12.3 46 7.6 73 73 NE 3 6 30.36 1028 10 16.09344 0 0
10:15 pm 22:15 Clear 53 11.6 46 7.7 77 77 Calm 30.39 1029 10 16.09344 0 0
10:35 pm 22:35 Clear 52 11.3 47 8.6 84 84 Calm 30.39 1029 10 16.09344 0 0
10:55 pm 22:55 Clear 51 10.6 47 8.6 88 88 Calm 30.39 1029 10 16.09344 0 0
11:15 pm 23:15 Clear 51 10.7 48 8.9 89 89 Calm 30.39 1029 10 16.09344 0 0
11:35 pm 23:35 Clear 50 10 47 8.6 91 91 WSW 3 6 30.42 1030 10 16.09344 0 0
11:55 pm 23:55 Clear 49 9.5 47 8.2 92 92 W 5 7 30.42 1030 10 16.09344 0 0

Powered by AerisWeather